星链-4126 (STARLINK-4126 )

导读

STARLINK-4126是美国太空探索技术公司(SpaceX)星链计划中的一颗卫星,于2022年6月17日发射升空,属于星链星座Group 4批次的卫星。星链计划旨在构建全球卫星互联网,该卫星在低地球轨道运行,为全球用户提供高速互联网接入服务,是星链大规模组网中的一员,推进了全球卫星互联网覆盖进程。

基本信息
目录编号:
52867
目录名称:
STARLINK-4126
国际标识:
2022-062AP
轨道中心:
EARTH
卫星名称:
星链-4126
卫星全名:
星链-4126 (STARLINK-4126 )
卫星状态:
在轨 (已飞行1541 天)
发射日期:
2022-06-17 UTC
国别 :
美国 (US)
星等 :
--
轨道信息
数据来源 国际轨道数据
星历时间: 2026-09-04T10:53:52+0800
1天前
查看轨道信息
半长轴: 6840.884km
偏心率: 0.0001178
轨道倾角: 53.160°
近地点辐角 77.591°
升交点赤经 290.160°
平近点角 282.522°
近地点: 461.941km
远地点: 463.553km
周期: 93.849分钟
每日圈数: 15.343856
详细信息
固有亮度:
5
最大亮度:
2.5
卫星平台:
Starlink v1.5
覆盖范围:
全球
运营商:
太空探索技术公司
运营商所在国:
美国
制造商(研发单位):
太空探索技术公司
制造商所在国:
美国
使用方式:
暂无
卫星简介
星链(Starlink)计划是由太空探索技术公司(SpaceX)提出的一个巨型低轨卫星互联网星座项目,计划在2019年至2024年间在太空搭建由约1.2万颗卫星组成的“星链”网络,其中1584颗将部署在地球上空550千米处的近地轨道,并从2020年开始工作。该卫星仍在工作。
2D轨道图
3D轨道图
轨道高度分析图
轨道倾角分析图
轨道综合分析图
查看轨道综合分析图
交会数据列表
事件ID 空间交会对象 最接近时刻(TCA) 交会距离 交会风险概率(CRP) 交会风险指数(CRI) 操作
CDM_260907-051304-945005-286721
2026-09-07T
05:13:04+0000
0.425 km
远距离
2.583069E-4 高风险 0.83
CDM_260907-074705-286706-937621
2026-09-07T
07:47:10+0000
0.432 km
远距离
1.87537E-4 高风险 0.8
CDM_260906-235805-286706-243221
2026-09-06T
23:58:36+0000
0.503 km
远距离
1.277313E-4 高风险 0.77
CDM_260907-064604-945005-286721
2026-09-07T
06:46:51+0000
0.987 km
远距离
2.458537E-5 中风险 0.63
CDM_260906-222405-286706-243221
2026-09-06T
22:24:48+0000
1.593 km
极远距离
3.301356E-6 低风险 0.45
CDM_260907-013205-286706-243221
2026-09-07T
01:32:23+0000
2.267 km
极远距离
1.336782E-6 低风险 0.38
CDM_260906-072705-264805-286722
2026-09-06T
07:27:09+0000
2.689 km
极远距离
1.285401E-6 低风险 0.37
CDM_260907-061305-286706-937621
2026-09-07T
06:13:23+0000
2.366 km
极远距离
1.267489E-6 低风险 0.37
CDM_260906-014305-286705-328821
2026-09-06T
01:43:30+0000
2.926 km
极远距离
1.227296E-6 低风险 0.37